Weather Roundup
Issued by NWS

Home | Current Version | Previous Version | Graphics & Text | Print | Product List | Glossary Off
Versions: 1 2 3 4 5 6 7 8 9 10 11 12 13 14 15 16 17 18 19 20 21 22 23 24 25 26 27 28 29 30 31 32 33 34 35 36 37 38 39 40 41 42 43 44 45 46 47 48 49 50

235
NZUS93 KARX 182010
HRRWXR

CURRENT HOURLY OBSERVATIONS ACROSS
MUCH OF THE UPPER MISSISSIPPI VALLEY
NATIONAL WEATHER SERVICE LA CROSSE WI
200 PM CST SAT NOV 18 2017


...SOUTHEAST MINNESOTA...


CITY           SKY/WX    TMP DP  RH WIND       PRES   REMARKS
ROCHESTER      SUNNY     39  28  64 NW24      29.79R WCI  28
ROCHESTER/MAYO FAIR      38  25  59 NW13G28   29.79R WCI  30
WINONA         SUNNY     41  28  60 NW14G23   29.77S
AUSTIN         SUNNY     39  27  60 NW21G28   29.81R WCI  29
ALBERT LEA     MOSUNNY   37  25  60 NW15G23   29.84R WCI  28
DODGE CENTER   MOSUNNY   37  27  65 NW17      29.81R WCI  28
PRESTON        SUNNY     38  28  67 NW23      29.76R WCI  28
OWATONNA       MOSUNNY   36  25  64 NW20G31   29.84R WCI  25
FARIBAULT      SUNNY     36  23  60 NW17G28   29.85R WCI  25
$$

...ELSEWHERE IN MINNESOTA...


CITY           SKY/WX    TMP DP  RH WIND       PRES   REMARKS
MINNEAPOLIS    SUNNY     35  21  56 NW22G28   29.85R WCI  23
INTNL FALLS    LGT SNOW  20  12  71 W16G23    29.85R WCI   6
DULUTH         PTSUNNY   24  16  71 NW15G28   29.78R WCI  11
RED WING       SUNNY     39  21  48 NW13G25   29.80S WCI  32
REDWOOD FALLS  SUNNY     32  17  54 NW22G29   29.95S WCI  19
MANKATO        CLOUDY    33  21  61 NW22G29   29.89R WCI  21
WORTHINGTON    SUNNY     35  19  52 NW30G36   29.95R WCI  22
FAIRMONT       CLOUDY    33  20  58 NW25G31   29.92R WCI  20
$$

...SOUTHWEST WISCONSIN...


CITY           SKY/WX    TMP DP  RH WIND       PRES   REMARKS
LA CROSSE      MOSUNNY   44  31  60 NW16      29.73R
PRAIRIE DU CHI CLOUDY    42  31  67 NW10G20   29.71S
BOSCOBEL       MOSUNNY   42  31  64 N12G18    29.70S
LONE ROCK      CLOUDY    40  32  73 NW13G22   29.67F WCI  32
PLATTEVILLE    CLOUDY    38  36  89 NW17      29.66R WCI  29
FORT MC COY    MOSUNNY   40  31  70 NW9G18    29.72S WCI  34
CAMP DOUGLAS   PTSUNNY   39  30  70 NW16      29.68F WCI  30
MAUSTON-NEW LI CLOUDY    38  31  74 NW13G25   29.67S WCI  31
VIROQUA        FAIR      39  34  82 N14G20    29.68F WCI  31
WIS DELLS      CLOUDY    37  32  79 NW13G21   29.64F WCI  29
$$

...ELSEWHERE IN WISCONSIN...


CITY           SKY/WX    TMP DP  RH WIND       PRES   REMARKS
MILWAUKEE      CLOUDY    40  35  83 NW22G29   29.54R WCI  30
MADISON        CLOUDY    37  33  85 N13G25    29.62S WCI  29
GREEN BAY      CLOUDY    39  33  79 NW13      29.60F WCI  31
EAU CLAIRE     MOSUNNY   39  25  57 NW13G22   29.75R WCI  31
BLACK RVR FLS  FAIR      42  28  58 NW12G21   29.71S
MEDFORD        CLOUDY    34  27  77 NW13G18   29.68S WCI  25
WAUSAU         CLOUDY    36  28  73 NW10G20   29.65S WCI  28
WIS RAPIDS     CLOUDY    38  30  73 N13       29.68S WCI  30
MARSHFIELD     CLOUDY    38  29  70 N12       29.67R WCI  30
RICE LAKE      MOSUNNY   35  23  61 NW13      29.79R WCI  26
$$

...NORTHEAST IOWA...


CITY           SKY/WX    TMP DP  RH WIND       PRES   REMARKS
WATERLOO       SUNNY     43  30  60 NW30G37   29.76R
DUBUQUE        CLOUDY    38  32  79 N21G28    29.67R WCI  28
DECORAH        SUNNY     41  30  65 NW14G26   29.72S
MASON CITY     SUNNY     38  26  62 NW26G32   29.85R WCI  26
CHARLES CITY   SUNNY     41  32  70 NW22G29   29.80R
OELWEIN        SUNNY     43  36  75 NW26G33   29.74S
$$

...ELSEWHERE IN IOWA...


CITY           SKY/WX    TMP DP  RH WIND       PRES   REMARKS
DES MOINES     MOSUNNY   45  29  53 NW20G32   29.86R
IOWA CITY      PTSUNNY   44  34  67 NW16G29   29.74R
FORT DODGE     SUNNY     40  26  57 NW17G30   29.90R WCI  31
MARSHALLTOWN   MOSUNNY   44  31  60 NW28G35   29.81R
CEDAR RAPIDS   CLOUDY    43  35  73 NW22G31   29.72R
$$

...NORTHERN ILLINOIS...


CITY           SKY/WX    TMP DP  RH WIND       PRES   REMARKS
CHICAGO-OHARE  LGT RAIN  38  35  89 NW24G32   29.52R WCI  27
CHICAGO-MIDWAY FLURRIES  36  35  96 NW17G24   29.52R WCI  26
MOLINE         CLOUDY    41  36  82 NW16G26   29.64S
ROCKFORD       CLOUDY    38  35  89 N18G35    29.60S WCI  28
PEORIA         CLOUDY    38  36  92 N13G30    29.58R WCI  30
$$

NOTE: "FAIR" INDICATES FEW OR NO CLOUDS BELOW 12,000 FEET WITH NO
SIGNIFICANT WEATHER AND/OR OBSTRUCTIONS TO VISIBILITY. WIND
SPEEDS ARE IN MILES-PER-HOUR.




USA.gov is the U.S. government's official web portal to all federal, state and local government web resources and services.